Details From GVNP - PRAIA INTERNATIONAL
To GVSV - Sao Pedro
Flight Number -
Tags generated
Created
Modified
Stats Distance 146 nm / 270 km
Max Altitude 0 ft / 0 m
Waypoints 2
Social Downloads 0
Likes 0
Share VATSIM

Download

Looking for another format? Having issues loading an existing format? Contact us
Advertisement - Login to hide

Notes

Basic altitude profile: - Ascent Rate: 2500ft/min - Ascent Speed: 250kts - Cruise Altitude: 35000ft - Cruise Speed: 420kts - Descent Rate: 1500ft/min - Descent Speed: 250kts Options: - Use NATs: yes - Use PACOTS: yes - Use low airways: yes - Use high airways: yes

Route

GVNP GVSV

ID Type Via Altitude Latitude Longitude Leg Dist Tot Dist Heading (true) Name
O GVNP APT - 0 ft / 0 m 14.93258˚ -23.48919˚ - 0 nm - PRAIA INTERNATIONAL
O GVSV APT - 0 ft / 0 m 16.83370˚ -25.05466˚ 145 nm 145 nm 322° / 321° Sao Pedro

Altitude Profile

Advertisement - Login to hide

GVNP

Details ICAO GVNP (RAI)
Name PRAIA INTERNATIONAL
Region Cape Verde
Timezone Atlantic/Cape_Verde (UTC-1.0)
Stats Elevation 230 ft / 70 m (AMSL)
Location 14.932581° -23.489194°
Runways 2
Magnetic Variation 9.833° W

METAR

GVNP 221400Z 04021KT 9999 FEW016 25/17 Q1016 NOSIG

Decode

TAF

TAF GVNP 221100Z 2212/2318 03016KT 9999 SCT017 TEMPO 2212/2216 BKN017

Decode

Departure Runways

ID Width Length Bearing (true) Bearing (mag) Surface Threshold Offset Overrun Length
03L 98 ft / 30 m 4,188 ft / 1,277 m 21.85° 31.68° Asphalt 0 ft / 0 m 0 ft / 0 m
03R 148 ft / 45 m 6,906 ft / 2,105 m 21.78° 31.61° Asphalt 650 ft / 198 m 0 ft / 0 m
21L 148 ft / 45 m 6,906 ft / 2,105 m 201.78° 211.61° Asphalt 0 ft / 0 m 0 ft / 0 m
21R 98 ft / 30 m 4,188 ft / 1,277 m 201.86° 211.69° Asphalt 0 ft / 0 m 0 ft / 0 m

GVSV

Details ICAO GVSV (VXE)
Name Sao Pedro
Region Cape Verde
Timezone Atlantic/Cape_Verde (UTC-1.0)
Stats Elevation 66 ft / 20 m (AMSL)
Location 16.833703° -25.054661°
Runways 1
Magnetic Variation 10.058° W

METAR

GVSV 221400Z 06020G30KT 9999 FEW022 26/15 Q1017 NOSIG

Decode

TAF

TAF GVSV 221100Z 2212/2318 06020KT 9999 SCT020 TEMPO 2212/2218 06022G32KT

Decode

Destination Runways

ID Width Length Bearing (true) Bearing (mag) Surface Threshold Offset Overrun Length
07 148 ft / 45 m 6,493 ft / 1,979 m 53.56° 63.62° Asphalt 1,066 ft / 325 m 0 ft / 0 m
25 148 ft / 45 m 6,493 ft / 1,979 m 233.57° 243.63° Asphalt 1,113 ft / 339 m 0 ft / 0 m

Popular Alternatives